Time,TemperatureF,DewpointF,PressureIn,WindDirection,WindDirectionDegrees,WindSpeedMPH,WindSpeedGustMPH,Humidity,HourlyPrecipIn,Conditions,Clouds,dailyrainin,SoftwareType,DateUTC
2013-01-20 00:04:00,45.0,25.0,29.97,ENE,60,12.0,18.0,45,-99.99,,,-99.99,,2013-01-20 05:04:00,
2013-01-20 00:12:00,45.0,25.0,29.96,ENE,60,9.0,-999.0,45,-99.99,,,-99.99,,2013-01-20 05:12:00,
2013-01-20 00:23:00,45.0,25.0,29.96,ENE,60,9.0,-999.0,45,-99.99,,,-99.99,,2013-01-20 05:23:00,
2013-01-20 00:33:00,45.0,25.0,29.95,NE,50,8.0,-999.0,45,-99.99,,,-99.99,,2013-01-20 05:33:00,
2013-01-20 00:43:00,45.0,25.0,29.95,NE,50,8.0,-999.0,45,-99.99,,,-99.99,,2013-01-20 05:43:00,
2013-01-20 00:53:00,45.0,25.0,29.93,North,-99,7.0,-999.0,45,-99.99,,,-99.99,,2013-01-20 05:53:00,
2013-01-20 01:02:00,45.0,25.0,29.93,North,-99,7.0,-999.0,45,-99.99,,,-99.99,,2013-01-20 06:02:00,
2013-01-20 01:12:00,46.0,27.0,29.92,ENE,60,13.0,17.0,45,-99.99,,,-99.99,,2013-01-20 06:12:00,
2013-01-20 01:22:00,46.0,27.0,29.92,ENE,60,13.0,17.0,45,-99.99,,,-99.99,,2013-01-20 06:22:00,
2013-01-20 01:33:00,46.0,25.0,29.92,ENE,70,8.0,-999.0,42,-99.99,,,-99.99,,2013-01-20 06:33:00,
2013-01-20 01:43:00,46.0,25.0,29.92,ENE,70,8.0,-999.0,42,-99.99,,,-99.99,,2013-01-20 06:43:00,
2013-01-20 01:52:00,46.0,25.0,29.91,ENE,60,13.0,28.0,42,-99.99,,,-99.99,,2013-01-20 06:52:00,
2013-01-20 02:02:00,46.0,25.0,29.91,ENE,60,13.0,28.0,42,-99.99,,,-99.99,,2013-01-20 07:02:00,
2013-01-20 02:12:00,46.0,25.0,29.90,ENE,70,8.0,-999.0,42,-99.99,,,-99.99,,2013-01-20 07:12:00,
2013-01-20 02:22:00,46.0,25.0,29.90,ENE,70,8.0,-999.0,42,-99.99,,,-99.99,,2013-01-20 07:22:00,
2013-01-20 02:32:00,46.0,25.0,29.90,ENE,70,8.0,-999.0,42,-99.99,,,-99.99,,2013-01-20 07:32:00,
2013-01-20 02:42:00,46.0,25.0,29.90,ENE,70,8.0,-999.0,42,-99.99,,,-99.99,,2013-01-20 07:42:00,
2013-01-20 02:52:00,46.0,25.0,29.89,ENE,70,9.0,-999.0,42,-99.99,,,-99.99,,2013-01-20 07:52:00,
2013-01-20 03:02:00,46.0,25.0,29.89,ENE,70,9.0,-999.0,42,-99.99,,,-99.99,,2013-01-20 08:02:00,
2013-01-20 03:12:00,46.0,25.0,29.89,East,80,9.0,-999.0,42,-99.99,,,-99.99,,2013-01-20 08:12:00,
2013-01-20 03:22:00,46.0,25.0,29.89,East,80,9.0,-999.0,42,-99.99,,,-99.99,,2013-01-20 08:22:00,
2013-01-20 03:32:00,46.0,25.0,29.88,North,-99,5.0,-999.0,42,-99.99,,,-99.99,,2013-01-20 08:32:00,
2013-01-20 03:42:00,46.0,25.0,29.88,North,-99,5.0,-999.0,42,-99.99,,,-99.99,,2013-01-20 08:42:00,
2013-01-20 03:52:00,46.0,25.0,29.87,ENE,70,8.0,-999.0,42,-99.99,,,-99.99,,2013-01-20 08:52:00,
2013-01-20 04:02:00,46.0,25.0,29.87,ENE,70,8.0,-999.0,42,-99.99,,,-99.99,,2013-01-20 09:02:00,
2013-01-20 04:12:00,46.0,25.0,29.87,North,-99,5.0,-999.0,42,-99.99,,,-99.99,,2013-01-20 09:12:00,
2013-01-20 04:22:00,46.0,25.0,29.87,North,-99,5.0,-999.0,42,-99.99,,,-99.99,,2013-01-20 09:22:00,
2013-01-20 04:33:00,45.0,25.0,29.87,North,0,0.0,-999.0,45,-99.99,,,-99.99,,2013-01-20 09:33:00,
2013-01-20 04:42:00,45.0,25.0,29.87,North,0,0.0,-999.0,45,-99.99,,,-99.99,,2013-01-20 09:42:00,
2013-01-20 04:52:00,45.0,25.0,29.86,North,0,0.0,-999.0,45,-99.99,,,-99.99,,2013-01-20 09:52:00,
2013-01-20 05:03:00,45.0,25.0,29.86,North,0,0.0,-999.0,45,-99.99,,,-99.99,,2013-01-20 10:03:00,
2013-01-20 05:12:00,45.0,25.0,29.86,North,-99,6.0,-999.0,45,-99.99,,,-99.99,,2013-01-20 10:12:00,
2013-01-20 05:23:00,45.0,25.0,29.86,North,-99,6.0,-999.0,45,-99.99,,,-99.99,,2013-01-20 10:23:00,
2013-01-20 05:32:00,45.0,25.0,29.85,NE,50,9.0,-999.0,45,-99.99,,,-99.99,,2013-01-20 10:32:00,
2013-01-20 05:42:00,45.0,25.0,29.85,NE,50,9.0,-999.0,45,-99.99,,,-99.99,,2013-01-20 10:42:00,
2013-01-20 05:52:00,43.0,25.0,29.85,North,0,0.0,-999.0,48,-99.99,,,-99.99,,2013-01-20 10:52:00,
2013-01-20 06:03:00,43.0,25.0,29.85,North,0,0.0,-999.0,48,-99.99,,,-99.99,,2013-01-20 11:03:00,
2013-01-20 06:12:00,43.0,25.0,29.85,North,-99,5.0,-999.0,48,-99.99,,,-99.99,,2013-01-20 11:12:00,
2013-01-20 06:22:00,43.0,25.0,29.85,North,-99,5.0,-999.0,48,-99.99,,,-99.99,,2013-01-20 11:22:00,
2013-01-20 06:33:00,43.0,25.0,29.84,North,-99,6.0,-999.0,48,-99.99,,,-99.99,,2013-01-20 11:33:00,
2013-01-20 06:43:00,43.0,25.0,29.84,North,-99,6.0,-999.0,48,-99.99,,,-99.99,,2013-01-20 11:43:00,
2013-01-20 06:53:00,43.0,25.0,29.84,North,-99,5.0,-999.0,48,-99.99,,,-99.99,,2013-01-20 11:53:00,
2013-01-20 07:03:00,43.0,25.0,29.84,North,-99,5.0,-999.0,48,-99.99,,,-99.99,,2013-01-20 12:03:00,
2013-01-20 07:12:00,43.0,25.0,29.84,North,-99,5.0,-999.0,48,-99.99,,,-99.99,,2013-01-20 12:12:00,
2013-01-20 07:23:00,43.0,25.0,29.84,North,-99,5.0,-999.0,48,-99.99,,,-99.99,,2013-01-20 12:23:00,
2013-01-20 07:33:00,43.0,25.0,29.84,North,0,0.0,-999.0,48,-99.99,,,-99.99,,2013-01-20 12:33:00,
2013-01-20 07:43:00,43.0,25.0,29.84,North,0,0.0,-999.0,48,-99.99,,,-99.99,,2013-01-20 12:43:00,
2013-01-20 07:52:00,43.0,25.0,29.84,North,0,0.0,-999.0,48,-99.99,,,-99.99,,2013-01-20 12:52:00,
2013-01-20 08:03:00,43.0,25.0,29.84,North,0,0.0,-999.0,48,-99.99,,,-99.99,,2013-01-20 13:03:00,
2013-01-20 08:12:00,43.0,25.0,29.84,North,0,0.0,-999.0,48,-99.99,,,-99.99,,2013-01-20 13:12:00,
2013-01-20 08:23:00,43.0,25.0,29.84,North,-99,7.0,-999.0,48,-99.99,,,-99.99,,2013-01-20 13:23:00,
2013-01-20 08:33:00,43.0,25.0,29.84,ENE,70,8.0,-999.0,48,-99.99,,,-99.99,,2013-01-20 13:33:00,
2013-01-20 08:43:00,43.0,25.0,29.84,ENE,70,8.0,-999.0,48,-99.99,,,-99.99,,2013-01-20 13:43:00,
2013-01-20 08:52:00,45.0,25.0,29.84,North,0,0.0,-999.0,45,-99.99,,,-99.99,,2013-01-20 13:52:00,
2013-01-20 09:03:00,45.0,25.0,29.84,North,0,0.0,-999.0,45,-99.99,,,-99.99,,2013-01-20 14:03:00,
2013-01-20 09:12:00,46.0,27.0,29.85,East,90,10.0,15.0,45,-99.99,,,-99.99,,2013-01-20 14:12:00,
2013-01-20 09:23:00,46.0,27.0,29.85,East,90,10.0,15.0,45,-99.99,,,-99.99,,2013-01-20 14:23:00,
2013-01-20 09:33:00,46.0,27.0,29.85,North,-99,6.0,-999.0,45,-99.99,,,-99.99,,2013-01-20 14:33:00,
2013-01-20 09:43:00,46.0,27.0,29.85,North,-99,6.0,-999.0,45,-99.99,,,-99.99,,2013-01-20 14:43:00,
2013-01-20 09:53:00,48.0,27.0,29.86,East,80,8.0,-999.0,42,-99.99,,,-99.99,,2013-01-20 14:53:00,
2013-01-20 10:04:00,48.0,27.0,29.86,East,80,8.0,-999.0,42,-99.99,,,-99.99,,2013-01-20 15:04:00,
2013-01-20 10:12:00,50.0,27.0,29.86,ENE,70,10.0,16.0,39,-99.99,,,-99.99,,2013-01-20 15:12:00,
2013-01-20 10:23:00,50.0,27.0,29.86,ENE,70,10.0,16.0,39,-99.99,,,-99.99,,2013-01-20 15:23:00,
2013-01-20 10:33:00,52.0,27.0,29.86,East,90,13.0,18.0,37,-99.99,,,-99.99,,2013-01-20 15:33:00,
2013-01-20 10:43:00,52.0,27.0,29.86,East,90,13.0,18.0,37,-99.99,,,-99.99,,2013-01-20 15:43:00,
2013-01-20 10:53:00,54.0,27.0,29.86,East,90,8.0,-999.0,34,-99.99,,,-99.99,,2013-01-20 15:53:00,
2013-01-20 11:03:00,54.0,27.0,29.86,East,90,8.0,-999.0,34,-99.99,,,-99.99,,2013-01-20 16:03:00,
2013-01-20 11:12:00,54.0,28.0,29.85,North,-99,7.0,-999.0,37,-99.99,,,-99.99,,2013-01-20 16:12:00,
2013-01-20 11:23:00,54.0,28.0,29.85,North,-99,7.0,-999.0,37,-99.99,,,-99.99,,2013-01-20 16:23:00,
2013-01-20 11:33:00,55.0,28.0,29.84,East,100,13.0,20.0,35,-99.99,,,-99.99,,2013-01-20 16:33:00,
2013-01-20 11:43:00,55.0,28.0,29.84,East,100,13.0,20.0,35,-99.99,,,-99.99,,2013-01-20 16:43:00,
2013-01-20 11:52:00,55.0,28.0,29.83,West,280,5.0,-999.0,35,-99.99,,,-99.99,,2013-01-20 16:52:00,
2013-01-20 12:03:00,55.0,28.0,29.83,West,280,5.0,-999.0,35,-99.99,,,-99.99,,2013-01-20 17:03:00,
2013-01-20 12:13:00,55.0,27.0,29.82,WNW,290,12.0,22.0,32,-99.99,,,-99.99,,2013-01-20 17:13:00,
2013-01-20 12:23:00,55.0,27.0,29.82,WNW,290,12.0,22.0,32,-99.99,,,-99.99,,2013-01-20 17:23:00,
2013-01-20 12:33:00,57.0,28.0,29.82,WNW,300,10.0,28.0,33,-99.99,,,-99.99,,2013-01-20 17:33:00,
2013-01-20 12:42:00,57.0,28.0,29.82,WNW,300,10.0,28.0,33,-99.99,,,-99.99,,2013-01-20 17:42:00,
2013-01-20 12:52:00,57.0,28.0,29.81,East,80,16.0,23.0,33,-99.99,,,-99.99,,2013-01-20 17:52:00,
2013-01-20 13:03:00,57.0,28.0,29.81,East,80,16.0,23.0,33,-99.99,,,-99.99,,2013-01-20 18:03:00,
2013-01-20 13:13:00,57.0,28.0,29.81,NW,310,13.0,-999.0,33,-99.99,,,-99.99,,2013-01-20 18:13:00,
2013-01-20 13:23:00,57.0,28.0,29.81,NW,310,13.0,-999.0,33,-99.99,,,-99.99,,2013-01-20 18:23:00,
2013-01-20 13:33:00,57.0,28.0,29.81,WNW,290,7.0,-999.0,33,-99.99,,,-99.99,,2013-01-20 18:33:00,
2013-01-20 13:43:00,57.0,28.0,29.81,WNW,290,7.0,-999.0,33,-99.99,,,-99.99,,2013-01-20 18:43:00,
2013-01-20 13:53:00,57.0,27.0,29.81,East,90,14.0,22.0,30,-99.99,,,-99.99,,2013-01-20 18:53:00,
2013-01-20 14:03:00,57.0,27.0,29.81,East,90,14.0,22.0,30,-99.99,,,-99.99,,2013-01-20 19:03:00,
2013-01-20 14:12:00,59.0,27.0,29.81,WNW,300,14.0,24.0,28,-99.99,,,-99.99,,2013-01-20 19:12:00,
2013-01-20 14:23:00,59.0,27.0,29.81,WNW,300,14.0,24.0,28,-99.99,,,-99.99,,2013-01-20 19:23:00,
2013-01-20 14:33:00,59.0,25.0,29.82,NW,310,14.0,21.0,26,-99.99,,,-99.99,,2013-01-20 19:33:00,
2013-01-20 14:43:00,59.0,25.0,29.82,NW,310,14.0,21.0,26,-99.99,,,-99.99,,2013-01-20 19:43:00,
2013-01-20 14:52:00,59.0,21.0,29.82,NW,320,15.0,30.0,22,-99.99,,,-99.99,,2013-01-20 19:52:00,
2013-01-20 15:03:00,59.0,21.0,29.82,NW,320,15.0,30.0,22,-99.99,,,-99.99,,2013-01-20 20:03:00,
2013-01-20 15:12:00,59.0,21.0,29.82,NW,320,15.0,30.0,22,-99.99,,,-99.99,,2013-01-20 20:12:00,
2013-01-20 15:23:00,59.0,21.0,29.82,NW,320,15.0,30.0,22,-99.99,,,-99.99,,2013-01-20 20:23:00,
2013-01-20 15:33:00,59.0,21.0,29.82,NW,320,15.0,30.0,22,-99.99,,,-99.99,,2013-01-20 20:33:00,
2013-01-20 15:42:00,57.0,21.0,29.84,NW,310,13.0,21.0,24,-99.99,,,-99.99,,2013-01-20 20:42:00,
2013-01-20 15:54:00,57.0,21.0,29.85,NW,310,14.0,21.0,24,-99.99,,,-99.99,,2013-01-20 20:54:00,
2013-01-20 16:04:00,57.0,21.0,29.85,NW,310,14.0,21.0,24,-99.99,,,-99.99,,2013-01-20 21:04:00,
2013-01-20 16:13:00,57.0,18.0,29.86,NW,310,20.0,30.0,20,-99.99,,,-99.99,,2013-01-20 21:13:00,
2013-01-20 16:23:00,57.0,18.0,29.86,NW,310,20.0,30.0,20,-99.99,,,-99.99,,2013-01-20 21:23:00,
2013-01-20 16:33:00,55.0,16.0,29.87,WNW,300,16.0,22.0,20,-99.99,,,-99.99,,2013-01-20 21:33:00,
2013-01-20 16:43:00,55.0,16.0,29.87,WNW,300,16.0,22.0,20,-99.99,,,-99.99,,2013-01-20 21:43:00,
2013-01-20 16:53:00,55.0,16.0,29.87,WNW,300,16.0,22.0,20,-99.99,,,-99.99,,2013-01-20 21:53:00,
2013-01-20 17:03:00,55.0,16.0,29.87,WNW,300,16.0,22.0,20,-99.99,,,-99.99,,2013-01-20 22:03:00,
2013-01-20 17:13:00,55.0,16.0,29.87,WNW,300,16.0,22.0,20,-99.99,,,-99.99,,2013-01-20 22:13:00,